Zurück zum Katalog

FENGYUN 1C DEB

AktivPO
NORAD 30160·DEBRIS·🇨🇳 China

Gestartet May 10, 1999 von Taiyuan Satellite Launch Center

Loading…

Nächste Überflüge (nächste 24 Stunden)

TLE

AktuellSource: Space-Track

Epoche: Sep 14, 2026, 06:14 UTC

1 30160U 99025TR  26257.26027130  .00000427  00000-0  57051-3 0  9992
2 30160  98.8964 179.0999 0341081 152.9444   0.2800 13.43260177961129

Verfolge FENGYUN 1C DEB in Echtzeit mit AllMySat

Download on the App Store